• In Hungary
  • List of Countries
  • For 7 days
  • Water Temperature
  • Satellite Maps
  • Weather Map
  • News
  • Weather Widgets
  • user-avatar
    Login

    Hourly Weather Balchik

    Today, 17 December, Sunday

    Time Temperature Precipitation Wind Pressure Humidity
    00:00 +10°C° 0.2 mm 4 mps 735 mmHg 75%
    01:00 +10°C° 0.2 mm 3 mps 735 mmHg 78%
    02:00 +9°C° 0 mm 2 mps 734 mmHg 77%
    03:00 +8°C° 0.4 mm 3 mps 734 mmHg 79%
    04:00 +8°C° 0.4 mm 3 mps 734 mmHg 81%
    05:00 +6°C° 0.4 mm 4 mps 734 mmHg 83%
    06:00 +6°C° 0.8 mm 4 mps 734 mmHg 85%
    07:00 +6°C° 0.8 mm 4 mps 734 mmHg 87%
    08:00 +6°C° 0.8 mm 4 mps 734 mmHg 89%
    09:00 +6°C° 1.2 mm 5 mps 734 mmHg 90%
    10:00 +6°C° 1.2 mm 5 mps 734 mmHg 90%
    11:00 +6°C° 1.2 mm 5 mps 734 mmHg 90%
    12:00 +5°C° 1.8 mm 5 mps 734 mmHg 90%
    13:00 +5°C° 1.8 mm 5 mps 734 mmHg 89%
    14:00 +4°C° 1.8 mm 6 mps 733 mmHg 89%
    15:00 +3°C° 0.7 mm 6 mps 733 mmHg 88%
    16:00 +3°C° 0.7 mm 6 mps 733 mmHg 87%
    17:00 +3°C° 0.7 mm 7 mps 733 mmHg 86%
    18:00 +2°C° 0.2 mm 7 mps 734 mmHg 86%
    19:00 +2°C° 0.2 mm 7 mps 734 mmHg 85%
    20:00 +2°C° 0.2 mm 6 mps 735 mmHg 84%
    21:00 +2°C° 0.2 mm 6 mps 735 mmHg 84%
    22:00 +1°C° 0.2 mm 6 mps 736 mmHg 84%
    23:00 +1°C° 0.2 mm 6 mps 737 mmHg 83%

    Tomorrow, 18 December, Monday

    Time Temperature Precipitation Wind Pressure Humidity
    00:00 +1°C° 0 mm 6 mps 737 mmHg 83%
    01:00 +1°C° 0 mm 6 mps 738 mmHg 82%
    02:00 -1°C° 0 mm 6 mps 738 mmHg 81%
    03:00 -1°C° 0 mm 6 mps 739 mmHg 82%
    04:00 0°C° 0 mm 5 mps 739 mmHg 83%
    05:00 -1°C° 0 mm 4 mps 739 mmHg 84%
    06:00 -1°C° 0 mm 4 mps 739 mmHg 85%
    07:00 0°C° 0 mm 3 mps 740 mmHg 86%
    08:00 0°C° 0 mm 3 mps 740 mmHg 87%
    09:00 +1°C° 0 mm 3 mps 741 mmHg 83%
    10:00 +2°C° 0 mm 3 mps 741 mmHg 79%
    11:00 +2°C° 0 mm 3 mps 741 mmHg 74%
    12:00 +4°C° 0 mm 2 mps 741 mmHg 72%
    13:00 +4°C° 0 mm 2 mps 741 mmHg 69%
    14:00 +4°C° 0 mm 2 mps 741 mmHg 67%
    15:00 +4°C° 0 mm 2 mps 741 mmHg 69%
    16:00 +3°C° 0 mm 2 mps 741 mmHg 71%
    17:00 +3°C° 0 mm 2 mps 741 mmHg 74%
    18:00 +2°C° 0 mm 2 mps 741 mmHg 75%
    19:00 +2°C° 0 mm 2 mps 741 mmHg 77%
    20:00 0°C° 0 mm 3 mps 741 mmHg 78%
    21:00 0°C° 0 mm 3 mps 742 mmHg 79%
    22:00 0°C° 0 mm 3 mps 742 mmHg 80%
    23:00 -1°C° 0 mm 4 mps 742 mmHg 81%

    Day after tomorrow, 19 December, Tuesday

    Time Temperature Precipitation Wind Pressure Humidity
    00:00 -1°C° 0 mm 4 mps 742 mmHg 82%
    01:00 -1°C° 0 mm 4 mps 742 mmHg 82%
    02:00 -2°C° 0 mm 5 mps 742 mmHg 82%
    03:00 -2°C° 0.1 mm 5 mps 742 mmHg 82%
    04:00 -2°C° 0.1 mm 5 mps 742 mmHg 81%
    05:00 -3°C° 0.1 mm 6 mps 742 mmHg 81%
    06:00 -3°C° 0.1 mm 6 mps 742 mmHg 80%
    07:00 -3°C° 0.1 mm 6 mps 743 mmHg 80%
    08:00 -3°C° 0.1 mm 6 mps 743 mmHg 79%
    09:00 -3°C° 0.4 mm 6 mps 744 mmHg 79%
    10:00 -3°C° 0.4 mm 6 mps 744 mmHg 79%
    11:00 -3°C° 0.4 mm 6 mps 744 mmHg 79%
    12:00 -3°C° 0.2 mm 6 mps 744 mmHg 77%
    13:00 -3°C° 0.2 mm 7 mps 744 mmHg 76%
    14:00 -3°C° 0.2 mm 7 mps 744 mmHg 74%
    15:00 -3°C° 0 mm 7 mps 744 mmHg 74%
    16:00 -3°C° 0 mm 6 mps 744 mmHg 73%
    17:00 -3°C° 0 mm 6 mps 745 mmHg 73%
    18:00 -3°C° 0 mm 6 mps 745 mmHg 74%
    19:00 -3°C° 0 mm 6 mps 745 mmHg 75%
    20:00 -2°C° 0 mm 5 mps 745 mmHg 76%
    21:00 -2°C° 0.1 mm 5 mps 746 mmHg 77%
    22:00 -4°C° 0.1 mm 5 mps 746 mmHg 78%
    23:00 -4°C° 0.1 mm 5 mps 746 mmHg 79%

    20 December, Wednesday

    Time Temperature Precipitation Wind Pressure Humidity
    00:00 -4°C° 0.1 mm 6 mps 746 mmHg 79%
    01:00 -4°C° 0.1 mm 6 mps 746 mmHg 80%
    02:00 -4°C° 0.1 mm 6 mps 746 mmHg 80%
    03:00 -4°C° 0.1 mm 6 mps 746 mmHg 80%
    04:00 -4°C° 0.1 mm 5 mps 746 mmHg 80%
    05:00 -4°C° 0.1 mm 5 mps 746 mmHg 81%
    06:00 -5°C° 0.1 mm 5 mps 746 mmHg 81%
    07:00 -5°C° 0.1 mm 5 mps 747 mmHg 81%
    08:00 -5°C° 0.1 mm 5 mps 747 mmHg 81%
    09:00 -4°C° 0 mm 5 mps 747 mmHg 78%
    10:00 -4°C° 0 mm 5 mps 747 mmHg 75%
    11:00 -4°C° 0 mm 5 mps 748 mmHg 73%
    12:00 -2°C° 0 mm 5 mps 748 mmHg 71%
    13:00 -2°C° 0 mm 5 mps 748 mmHg 69%
    14:00 -2°C° 0 mm 5 mps 748 mmHg 67%
    15:00 -2°C° 0 mm 4 mps 748 mmHg 70%
    16:00 -3°C° 0 mm 4 mps 748 mmHg 73%
    17:00 -2°C° 0 mm 3 mps 748 mmHg 75%
    18:00 -2°C° 0 mm 3 mps 749 mmHg 77%
    19:00 -4°C° 0 mm 3 mps 749 mmHg 79%
    20:00 -3°C° 0 mm 2 mps 749 mmHg 80%
    21:00 -3°C° 0 mm 2 mps 749 mmHg 81%
    22:00 -3°C° 0 mm 2 mps 749 mmHg 82%
    23:00 -3°C° 0 mm 2 mps 750 mmHg 83%

    21 December, Thursday

    Time Temperature Precipitation Wind Pressure Humidity
    00:00 -3°C° 0 mm 2 mps 750 mmHg 85%
    01:00 -3°C° 0 mm 2 mps 750 mmHg 86%
    02:00 -3°C° 0 mm 2 mps 750 mmHg 87%
    03:00 -3°C° 0 mm 2 mps 749 mmHg 88%
    04:00 -3°C° 0 mm 2 mps 749 mmHg 88%
    05:00 -4°C° 0 mm 2 mps 749 mmHg 88%
    06:00 -4°C° 0 mm 2 mps 749 mmHg 88%
    07:00 -4°C° 0 mm 2 mps 749 mmHg 88%
    08:00 -4°C° 0 mm 2 mps 749 mmHg 88%
    09:00 -3°C° 0 mm 2 mps 749 mmHg 83%
    10:00 -2°C° 0 mm 3 mps 749 mmHg 78%
    11:00 -1°C° 0 mm 3 mps 749 mmHg 73%
    12:00 -1°C° 0 mm 3 mps 749 mmHg 69%
    13:00 0°C° 0 mm 3 mps 748 mmHg 66%
    14:00 -1°C° 0 mm 4 mps 748 mmHg 63%
    15:00 -1°C° 0 mm 3 mps 747 mmHg 67%
    16:00 -2°C° 0 mm 3 mps 747 mmHg 71%
    17:00 -4°C° 0 mm 3 mps 747 mmHg 74%
    18:00 -4°C° 0 mm 3 mps 747 mmHg 77%
    19:00 -4°C° 0 mm 3 mps 747 mmHg 79%
    20:00 -5°C° 0 mm 3 mps 747 mmHg 81%
    21:00 -5°C° 0 mm 4 mps 747 mmHg 82%
    22:00 -5°C° 0 mm 4 mps 747 mmHg 82%
    23:00 -5°C° 0 mm 4 mps 747 mmHg 82%

    22 December, Friday

    Time Temperature Precipitation Wind Pressure Humidity
    00:00 -5°C° 0 mm 4 mps 746 mmHg 81%
    01:00 -5°C° 0 mm 4 mps 746 mmHg 79%
    02:00 -5°C° 0 mm 4 mps 746 mmHg 78%
    03:00 -5°C° 0 mm 4 mps 745 mmHg 76%
    04:00 -5°C° 0 mm 3 mps 745 mmHg 73%
    05:00 -5°C° 0 mm 3 mps 745 mmHg 71%
    06:00 -4°C° 0 mm 3 mps 745 mmHg 69%
    07:00 -4°C° 0 mm 3 mps 745 mmHg 67%
    08:00 -4°C° 0 mm 4 mps 745 mmHg 65%
    09:00 -3°C° 0 mm 4 mps 745 mmHg 65%
    10:00 -2°C° 0 mm 4 mps 745 mmHg 65%
    11:00 0°C° 0 mm 5 mps 745 mmHg 65%
    12:00 0°C° 0 mm 5 mps 744 mmHg 67%
    13:00 +1°C° 0 mm 5 mps 744 mmHg 69%
    14:00 +1°C° 0 mm 5 mps 744 mmHg 71%
    15:00 0°C° 0 mm 4 mps 744 mmHg 76%
    16:00 0°C° 0 mm 3 mps 743 mmHg 82%
    17:00 -1°C° 0 mm 3 mps 743 mmHg 88%
    18:00 -2°C° 0 mm 3 mps 743 mmHg 89%
    19:00 -2°C° 0 mm 3 mps 743 mmHg 90%
    20:00 -2°C° 0 mm 2 mps 743 mmHg 92%
    21:00 -2°C° 0 mm 2 mps 743 mmHg 92%
    22:00 -2°C° 0 mm 2 mps 743 mmHg 91%
    23:00 -2°C° 0 mm 2 mps 743 mmHg 91%
    Show more